FW4683 Weather Reports


time (UTC)temp
F
wind
direction
speed
knots
gust
knots
rain 1hr
in
rain 24hr
in
rain mn
in
humidity
%
barometer
mb
20260505004041 69 96 2.6 7.0 0.00 0.00 0.00 45 1013.9
20260505003543 69 96 3.5 7.8 0.00 0.00 0.00 45 1013.8
20260505003041 70 96 1.7 7.8 0.00 0.00 0.00 44 1013.8
20260505002541 70 96 5.2 8.7 0.00 0.00 0.00 43 1013.7
20260505002041 70 96 3.5 8.7 0.00 0.00 0.00 43 1013.9
20260505001540 70 96 5.2 9.6 0.00 0.00 0.00 43 1013.9
20260505001039 70 96 1.7 9.6 0.00 0.00 0.00 43 1013.9
20260505000539 70 96 3.5 7.8 0.00 0.00 0.00 43 1013.7
20260505000052 70 96 2.6 6.1 0.00 0.00 0.00 43 1013.7
20260504235539 70 96 2.6 8.7 0.00 0.00 0.00 43 1013.8
20260504234536 71 96 2.6 7.0 0.00 0.00 0.00 42 1013.6
20260504234035 71 96 1.7 7.0 0.00 0.00 0.00 42 1013.5
20260504233535 71 96 3.5 7.0 0.00 0.00 0.00 41 1013.5
20260504233038 71 96 3.5 7.0 0.00 0.00 0.00 41 1013.5
20260504232534 71 96 3.5 7.8 0.00 0.00 0.00 40 1013.4
20260504232035 72 96 2.6 8.7 0.00 0.00 0.00 40 1013.3
20260504231533 72 96 3.5 9.6 0.00 0.00 0.00 39 1013.3
20260504231034 72 96 5.2 9.6 0.00 0.00 0.00 39 1013.3
20260504230533 72 96 4.3 10.4 0.00 0.00 0.00 38 1013.3
20260504230033 73 96 4.3 12.2 0.00 0.00 0.00 38 1013.3
20260504225534 73 96 5.2 9.6 0.00 0.00 0.00 36 1013.3
20260504224533 73 96 3.5 13.0 0.00 0.00 0.00 37 1013.3
20260504224032 74 96 7.8 14.8 0.00 0.00 0.00 36 1013.2
20260504223532 74 96 7.0 14.8 0.00 0.00 0.00 36 1013.4
20260504223035 74 96 4.3 13.0 0.00 0.00 0.00 36 1013.3
20260504222533 74 96 7.0 14.8 0.00 0.00 0.00 35 1013.4
20260504222031 74 96 7.8 14.8 0.00 0.00 0.00 35 1013.4
20260504221531 74 96 7.8 16.5 0.00 0.00 0.00 34 1013.4
20260504221034 74 96 7.8 16.5 0.00 0.00 0.00 35 1013.4
20260504220532 74 95 10.4 15.6 0.00 0.00 0.00 35 1013.3
20260504220040 74 96 7.0 15.6 0.00 0.00 0.00 36 1013.4
20260504215532 74 96 9.6 16.5 0.00 0.00 0.00 36 1013.3
20260504214540 74 96 13.0 16.5 0.00 0.00 0.00 36 1013.3
20260504214032 75 95 10.4 15.6 0.00 0.00 0.00 35 1013.3
20260504213533 75 95 7.8 16.5 0.00 0.00 0.00 37 1013.3
20260504213034 75 95 11.3 20.0 0.00 0.00 0.00 36 1013.3
20260504212531 75 96 9.6 15.6 0.00 0.00 0.00 35 1013.3
20260504212033 76 96 9.6 15.6 0.00 0.00 0.00 35 1013.2
20260504211535 76 96 7.0 15.6 0.00 0.00 0.00 35 1013.2
20260504211031 76 96 9.6 15.6 0.00 0.00 0.00 36 1013.1
20260504210530 76 96 8.7 15.6 0.00 0.00 0.00 36 1013.1
20260504210030 76 96 7.0 16.5 0.00 0.00 0.00 35 1013.2
20260504205530 76 96 8.7 15.6 0.00 0.00 0.00 36 1013.2
20260504204530 76 96 8.7 15.6 0.00 0.00 0.00 36 1013.2
20260504204029 76 96 3.5 15.6 0.00 0.00 0.00 36 1013.2
20260504203532 76 96 7.0 12.2 0.00 0.00 0.00 36 1013.4
20260504203029 76 96 7.0 12.2 0.00 0.00 0.00 37 1013.4
20260504202528 76 96 7.0 13.0 0.00 0.00 0.00 37 1013.4
20260504202026 76 96 7.0 13.0 0.00 0.00 0.00 37 1013.4
20260504201526 76 96 6.1 13.0 0.00 0.00 0.00 36 1013.5
20260504201026 76 96 7.8 13.0 0.00 0.00 0.00 37 1013.5
20260504200525 76 96 7.0 13.9 0.00 0.00 0.00 36 1013.7
20260504200025 76 96 8.7 13.9 0.00 0.00 0.00 36 1013.7
20260504195523 76 96 8.7 13.9 0.00 0.00 0.00 37 1013.8
20260504194525 75 96 9.6 13.9 0.00 0.00 0.00 37 1014.0
20260504194022 75 96 6.1 13.0 0.00 0.00 0.00 37 1014.0
20260504193523 75 96 7.0 13.0 0.00 0.00 0.00 37 1014.1
20260504193024 75 96 7.8 12.2 0.00 0.00 0.00 37 1014.2
20260504192520 75 96 6.1 13.9 0.00 0.00 0.00 37 1014.3
20260504192022 75 96 6.1 13.9 0.00 0.00 0.00 37 1014.3
20260504191523 75 96 7.0 13.0 0.00 0.00 0.00 37 1014.5
20260504191019 75 96 8.7 13.0 0.00 0.00 0.00 37 1014.5
20260504190519 76 96 7.0 13.9 0.00 0.00 0.00 35 1014.5
20260504190017 76 96 3.5 13.9 0.00 0.00 0.00 35 1014.6
20260504185515 75 96 7.8 14.8 0.00 0.00 0.00 37 1014.8
20260504184519 74 96 7.0 13.0 0.00 0.00 0.00 37 1014.7
20260504184015 74 96 7.0 10.4 0.00 0.00 0.00 37 1014.9
20260504183516 75 96 4.3 13.0 0.00 0.00 0.00 37 1014.9
20260504183015 74 96 4.3 10.4 0.00 0.00 0.00 37 1015.0
20260504182512 74 96 5.2 10.4 0.00 0.00 0.00 38 1015.0
20260504182012 74 96 6.1 9.6 0.00 0.00 0.00 38 1015.1
20260504181517 74 96 5.2 10.4 0.00 0.00 0.00 38 1015.2
20260504181110 73 96 3.5 10.4 0.00 0.00 0.00 38 1015.3
20260504180511 73 96 5.2 10.4 0.00 0.00 0.00 38 1015.2
20260504180008 73 96 6.1 11.3 0.00 0.00 0.00 38 1015.4
20260504175507 72 96 6.1 11.3 0.00 0.00 0.00 38 1015.4
20260504174507 72 96 6.1 11.3 0.00 0.00 0.00 38 1015.5
20260504174007 72 96 5.2 12.2 0.00 0.00 0.00 36 1015.6
20260504173507 72 96 7.0 12.2 0.00 0.00 0.00 36 1015.6
20260504173006 73 96 4.3 7.0 0.00 0.00 0.00 35 1015.7
20260504172504 72 96 0.9 8.7 0.00 0.00 0.00 36 1015.6
20260504172004 71 96 1.7 12.2 0.00 0.00 0.00 36 1015.8
20260504171508 71 96 7.8 12.2 0.00 0.00 0.00 36 1015.8
20260504171004 71 96 0.9 11.3 0.00 0.00 0.00 37 1015.8
20260504170504 71 96 7.8 11.3 0.00 0.00 0.00 37 1015.9
20260504160105 70 96 0.9 6.1 0.00 0.00 0.00 38 1017.2
20260504151051 68 96 0.0 2.6 0.00 0.00 0.00 36 1018.0
20260504150553 67 96 0.0 2.6 0.00 0.00 0.00 38 1018.1
20260504141039 61 96 0.9 3.5 0.00 0.00 0.00 52 1018.1
20260504140538 60 96 0.0 5.2 0.00 0.00 0.00 55 1018.0
20260504130530 55 96 0.0 2.6 0.00 0.00 0.00 63 1017.6
20260504110510 44 96 1.7 5.2 0.00 0.00 0.00 82 1017.2
20260504100507 43 96 0.0 0.9 0.00 0.00 0.00 84 1017.5
20260504081554 45 96 0.0 2.6 0.00 0.00 0.00 78 1017.2
20260504081054 45 96 0.0 2.6 0.00 0.00 0.00 78 1017.1
20260504080556 45 96 0.0 1.7 0.00 0.00 0.00 78 1017.0
20260504050536 49 96 0.0 0.0 0.00 0.00 0.00 73 1017.5
20260504045535 49 96 0.0 0.0 0.00 0.00 0.00 72 1017.3
20260504044536 50 96 0.0 1.7 0.00 0.00 0.00 73 1017.2
20260504044036 50 96 0.0 0.9 0.00 0.00 0.00 74 1017.2
20260504043535 50 96 0.0 1.7 0.00 0.00 0.00 73 1017.2
20260504043036 50 96 0.0 2.6 0.00 0.00 0.00 72 1017.1
20260504042536 50 96 0.9 2.6 0.00 0.00 0.00 72 1017.2
20260504042035 51 96 0.0 1.7 0.00 0.00 0.00 71 1017.4
20260504041535 51 96 0.0 1.7 0.00 0.00 0.00 71 1017.4
20260504041035 51 96 0.0 2.6 0.00 0.00 0.00 70 1017.2
20260504040534 51 96 0.9 2.6 0.00 0.00 0.00 68 1017.1
20260504040038 51 96 0.0 1.7 0.00 0.00 0.00 67 1017.1
20260504035535 52 96 0.0 1.7 0.00 0.00 0.00 65 1016.9
20260504034536 52 96 0.0 1.7 0.00 0.00 0.00 64 1017.0
20260504034035 52 96 0.0 1.7 0.00 0.00 0.00 64 1017.2
20260504033535 52 96 0.0 1.7 0.00 0.00 0.00 64 1017.1
20260504033047 52 96 0.0 2.6 0.00 0.00 0.00 63 1017.1
20260504032535 53 96 0.9 2.6 0.00 0.00 0.00 65 1017.1
20260504032034 53 96 0.0 0.0 0.00 0.00 0.00 62 1017.3
20260504031536 53 96 0.0 1.7 0.00 0.00 0.00 64 1017.3
20260504031034 53 96 0.0 1.7 0.00 0.00 0.00 64 1017.3
20260504030534 54 96 0.0 0.9 0.00 0.00 0.00 66 1017.3
20260504030034 54 96 0.0 0.9 0.00 0.00 0.00 64 1017.2
20260504025534 54 96 0.0 0.9 0.00 0.00 0.00 63 1017.3
20260504024543 54 96 0.0 0.9 0.00 0.00 0.00 64 1017.4
20260504024033 55 96 0.0 0.9 0.00 0.00 0.00 63 1017.4
20260504023533 54 96 0.0 0.9 0.00 0.00 0.00 64 1017.4
20260504023034 55 96 0.0 0.9 0.00 0.00 0.00 65 1017.2
20260504022534 55 96 0.0 0.9 0.00 0.00 0.00 64 1017.2
20260504022033 55 96 0.0 1.7 0.00 0.00 0.00 64 1017.2
20260504021536 55 96 0.0 1.7 0.00 0.00 0.00 64 1017.2
20260504021033 56 96 0.0 2.6 0.00 0.00 0.00 63 1017.1
20260504020532 56 96 0.9 2.6 0.00 0.00 0.00 62 1016.9
20260504020033 56 96 0.0 0.9 0.00 0.00 0.00 62 1016.8
20260504015533 56 96 0.0 0.9 0.00 0.00 0.00 63 1016.7
20260504014535 57 96 0.0 1.7 0.00 0.00 0.00 62 1016.6
20260504014035 57 96 0.0 1.7 0.00 0.00 0.00 61 1016.5
20260504013536 57 96 0.0 1.7 0.00 0.00 0.00 61 1016.3
20260504013044 58 96 0.9 1.7 0.00 0.00 0.00 60 1016.3
20260504012535 58 96 0.0 1.7 0.00 0.00 0.00 59 1016.2
20260504012035 58 96 0.0 3.5 0.00 0.00 0.00 59 1016.2
20260504011535 58 96 0.0 3.5 0.00 0.00 0.00 59 1016.1
20260504011035 59 96 0.9 2.6 0.00 0.00 0.00 58 1016.0
20260504010535 59 96 0.0 1.7 0.00 0.00 0.00 57 1016.0
20260504010034 60 96 0.9 1.7 0.00 0.00 0.00 55 1016.0
20260504005534 61 96 0.0 1.7 0.00 0.00 0.00 53 1016.0
20260504004542 62 96 0.0 3.5 0.00 0.00 0.00 51 1015.8